Tracking 30058 objects as of 9-Dec-2024
HD Live streaming from Space Station
objects crossing your sky now

STARLINK-32127

Track STARLINK-32127 now!
10-day predictions
STARLINK-32127 is classified as:


NORAD ID: 60146
Int'l Code: 2024-120M
Perigee: 453.5 km
Apogee: 455.3 km
Inclination: 53.2 °
Period: 93.5 minutes
Semi major axis: 6825 km
RCS: Unknown
Launch date: June 27, 2024
Source: United States (US)
Launch site: AIR FORCE EASTERN TEST RANGE (AFETR)
Your satellite tracking list
Your tracking list is empty




NASA's NSSDC Master Catalog

Two Line Element Set (TLE):
1 60146U 24120M   24344.51917395  .00000860  00000-0  31491-4 0  9999
2 60146  53.1621 275.1339 0001298  56.5908 303.5221 15.39610656 26679
Source of the keplerian elements: AFSPC